Location: ?
(35.4214°N, 139.3011°E)
Time: 22:35:45
(UTC+00:00)

Atlas Centaur 2 - Pass Details

Date: 14 July 2020
Orbit: 459 x 1310 km, 30.4° (Epoch: 10 August)

Event Time Altitude Azimuth Distance (km) Brightness Sun altitude
Rises 11:22:04 0° 260° (W) 2,815 5.5 -14.9°
Reaches altitude 10° 11:24:58 10° 238° (WSW) 2,051 4.4 -15.3°
Maximum altitude 11:27:55 16° 200° (SSW) 1,814 3.7 -15.8°
Enters shadow 11:29:37 14° 178° (S) 2,014 3.8 -16.0°
